Regional Weather Roundup
Issued by NWS Kansas City/Pleasant Hill, MO

Home | Current Version | Previous Version | Graphics & Text | Print | Product List | Glossary Off
Versions: 1 2 3 4 5 6 7 8 9 10 11 12 13 14 15 16 17 18 19 20 21 22 23 24 25 26 27 28 29 30 31 32 33 34 35 36 37 38 39 40 41 42 43 44 45 46 47 48 49 50

000
ASUS43 KEAX 150810
RWREAX

WEATHER ROUNDUP FOR EASTERN KANSAS AND NORTHWEST MISSOURI
NATIONAL WEATHER SERVICE KANSAS CITY/PLEASANT HILL MO
200 AM CST FRI DEC 15 2017

KSZ040-057-103>105-MOZ028-029-037-043-150900-
...KANSAS CITY METROPOLITAN AREA...

CITY           SKY/WX    TMP DP  RH WIND       PRES   REMARKS
K.C. INTL      CLOUDY    35  29  78 W5        30.11S WCI  31
K.C. DOWNTOWN  CLOUDY    37  27  67 W5        30.13R WCI  33
LEES SUMMIT    CLOUDY    34  26  72 W6        30.12R WCI  29
OLATHE - IXD   CLOUDY    35  29  78 NW7       30.14R WCI  29
OLATHE - OJC   CLOUDY    34  28  79 NW8       30.12S WCI  27
LAWRENCE       CLOUDY    37  32  82 W6        30.14S WCI  32

$$

MOZ001>008-011>017-020>025-030>033-038>040-044>046-053-054-150900-
...NORTHERN AND CENTRAL MISSOURI...

CITY           SKY/WX    TMP DP  RH WIND       PRES   REMARKS
ST. JOSEPH     CLOUDY    34  30  85 NW5       30.12F WCI  30
MOSBY          CLOUDY    30  27  86 CALM      30.12S
WARRENSBURG    PTCLDY    27  23  86 S3        30.12R
WHITEMAN AFB   MOCLDY    31  26  83 S5        30.07S WCI  26
CLINTON        CLOUDY    28  25  86 CALM      30.12S
SEDALIA        CLOUDY    32  28  85 CALM      30.12S
WARSAW         NOT AVBL
CHILLICOTHE      N/A     29  25  85 SW3       30.11F
KIRKSVILLE     CLOUDY    30  27  88 W7        30.07S WCI  23

$$

MOZ041-047>049-056>058-063>065-088>090-097-150900-
...EASTERN AND SOUTHERN MISSOURI...

CITY           SKY/WX    TMP DP  RH WIND       PRES   REMARKS
ST. LOUIS INTL CLOUDY    30  21  69 W7        30.11R WCI  23
SPIRIT OF STL  CLOUDY    29  23  78 CALM      30.11R
COLUMBIA       CLOUDY    31  23  72 W6        30.11R WCI  25
JEFFERSON CITY CLOUDY    29  23  78 CALM      30.13R
ROLLA          CLOUDY    30  23  75 S7        30.10R WCI  23
OSAGE BEACH    PTCLDY    28  24  85 CALM      30.13R
SPRINGFIELD    PTCLDY    28  23  81 SW3       30.10S
BRANSON        CLOUDY    32  25  74 CALM      30.13S
JOPLIN         CLOUDY    35  29  78 SW8       30.14R WCI  29
WEST PLAINS    CLOUDY    29  21  72 CALM      30.11S

$$

IAZ060-094-KSZ022-034>040-054-083-096-NEZ052-066-093-150900-
...KANSAS...SOUTHEAST NEBRASKA AND IOWA...

CITY           SKY/WX    TMP DP  RH WIND       PRES   REMARKS
TOPEKA         CLOUDY    37  34  89 W8        30.15S WCI  31
MANHATTAN      PTCLDY    37  31  78 CALM      30.17S
EMPORIA        CLOUDY    36  30  79 NW7       30.16S WCI  30
CHANUTE        CLOUDY    40  32  73 NW10      30.16R WCI  33
WICHITA        PTCLDY    33  30  88 NW8       30.20R WCI  26
OMAHA          CLOUDY    32  23  69 CALM      30.13S
LINCOLN        CLOUDY    34  28  79 W3        30.15F
FALLS CITY     CLOUDY    37  29  72 NW10      30.12F WCI  30
LAMONI         CLOUDY    32  25  75 W10       30.06F WCI  24
DES MOINES     MOCLDY    30  24  78 NW15      30.07R WCI  19

$$




USA.gov is the U.S. government's official web portal to all federal, state and local government web resources and services.